Weather History for Boonville, MO

Change the Weather History Date:

Tuesday, May 15, 2012

  Actual Average Record
Temperature  
Mean Temperature 64 °F -  
Max Temperature 87 °F 73 °F 90 °F (1987)
Min Temperature 48 °F 51 °F 39 °F (1959)
Growing Degree Days 14 (Base 50)    
Moisture  
Dew Point 50 °F    
Average Humidity 59    
Maximum Humidity 95    
Minimum Humidity 30    
Precipitation  
Precipitation 0.00 in - - ()
Sea Level Pressure  
Sea Level Pressure 30.03 in    
Wind  
Wind Speed 2 mph (SW)    
Max Wind Speed 9 mph    
Max Gust Speed -    
Visibility 10 miles    
Events      
Averages and records for this station are not official NWS values.
T = Trace of Precipitation, MM = Missing Value Source: NWS Daily Summary

Daily Weather History Graph

Daily Weather History Graph

Search for Another Location

Airport:

Trip Planner

Search our weather history database for the weather conditions in past years. The results will help you decide how hot, cold, wet, or windy it might be!

Date:

Astronomy

May. 15, 2012 Rise Set
Actual Time 5:57 AM CDT 8:17 PM CDT
Civil Twilight 5:27 AM CDT 8:47 PM CDT
Nautical Twilight 4:50 AM CDT 9:24 PM CDT
Astronomical Twilight 4:09 AM CDT 10:05 PM CDT
Moon 2:57 AM CDT (5/15) 3:38 PM CDT (5/15)
Length of Visible Light 15h 19m
Length of Day
14h 19m
Waning Crescent, 23% of the Moon is Illuminated
May 15
Waning Crescent
May 20
New
May 28
First Quarter
Jun 4
Full
Jun 11
Last Quarter

Hourly Weather History & Observations

Time (CDT) Temp. Dew Point Humidity Pressure Visibility Wind Dir Wind Speed Gust Speed Precip Events Conditions
12:15 AM 55.0 °F 49.6 °F 82% 30.07 in 10.0 mi Calm Calm - N/A   Clear
12:35 AM 54.5 °F 49.8 °F 84% 30.07 in 10.0 mi Calm Calm - N/A   Clear
12:55 AM 52.7 °F 50.0 °F 91% 30.06 in 10.0 mi Calm Calm - N/A   Clear
1:15 AM 53.1 °F 49.8 °F 89% 30.06 in 10.0 mi Calm Calm - N/A   Clear
1:35 AM 53.4 °F 49.1 °F 85% 30.05 in 10.0 mi South 3.5 mph - N/A   Clear
1:55 AM 50.7 °F 48.2 °F 91% 30.05 in 10.0 mi SSW 3.5 mph - N/A   Clear
2:15 AM 50.2 °F 48.6 °F 94% 30.04 in 10.0 mi South 3.5 mph - N/A   Clear
2:35 AM 50.4 °F 48.7 °F 94% 30.04 in 7.0 mi South 3.5 mph - N/A   Clear
2:55 AM 50.7 °F 48.4 °F 92% 30.04 in 10.0 mi Calm Calm - N/A   Clear
3:15 AM 50.7 °F 48.4 °F 92% 30.04 in 10.0 mi Calm Calm - N/A   Clear
3:35 AM 50.9 °F 48.2 °F 90% 30.04 in 10.0 mi Calm Calm - N/A   Clear
3:55 AM 50.7 °F 48.0 °F 90% 30.04 in 10.0 mi Calm Calm - N/A   Clear
4:15 AM 51.4 °F 47.8 °F 87% 30.04 in 10.0 mi Calm Calm - N/A   Clear
4:35 AM 51.8 °F 47.7 °F 86% 30.04 in 10.0 mi Calm Calm - N/A   Clear
4:55 AM 50.9 °F 47.5 °F 88% 30.04 in 10.0 mi Calm Calm - N/A   Clear
5:15 AM 50.0 °F 47.5 °F 91% 30.04 in 10.0 mi Calm Calm - N/A   Clear
5:35 AM 49.5 °F 47.3 °F 92% 30.04 in 10.0 mi Calm Calm - N/A   Clear
5:55 AM 49.1 °F 47.3 °F 93% 30.05 in 10.0 mi Calm Calm - N/A   Clear
6:15 AM 48.7 °F 47.3 °F 95% 30.05 in 10.0 mi Calm Calm - N/A   Clear
6:35 AM 51.1 °F 48.0 °F 89% 30.06 in 10.0 mi Calm Calm - N/A   Clear
6:55 AM 52.2 °F 48.0 °F 86% 30.06 in 10.0 mi Calm Calm - N/A   Clear
7:15 AM 53.4 °F 49.8 °F 88% 30.06 in 10.0 mi Calm Calm - N/A   Clear
7:35 AM 55.6 °F 51.3 °F 85% 30.07 in 10.0 mi Calm Calm - N/A   Clear
7:55 AM 57.4 °F 52.0 °F 82% 30.07 in 10.0 mi Calm Calm - N/A   Clear
8:15 AM 59.7 °F 52.5 °F 77% 30.07 in 10.0 mi Calm Calm - N/A   Clear
8:35 AM 62.4 °F 53.2 °F 72% 30.07 in 10.0 mi SW 3.5 mph - N/A   Clear
8:55 AM 64.8 °F 54.1 °F 68% 30.08 in 10.0 mi SW 4.6 mph - N/A   Clear
9:15 AM 68.0 °F 54.3 °F 62% 30.08 in 10.0 mi SSW 4.6 mph - N/A   Clear
9:35 AM 70.2 °F 54.0 °F 56% 30.08 in 10.0 mi WSW 6.9 mph - N/A   Clear
9:55 AM 71.4 °F 53.1 °F 52% 30.08 in 10.0 mi WSW 8.1 mph - N/A   Clear
10:15 AM 72.5 °F 52.2 °F 49% 30.08 in 10.0 mi SW 8.1 mph - N/A   Clear
10:35 AM 73.6 °F 52.0 °F 47% 30.08 in 10.0 mi SW 4.6 mph - N/A   Clear
10:55 AM 74.5 °F 52.2 °F 46% 30.08 in 10.0 mi WNW 9.2 mph - N/A   Clear
11:15 AM 75.0 °F 52.5 °F 45% 30.08 in 10.0 mi West 6.9 mph - N/A   Clear
11:35 AM 75.6 °F 51.3 °F 42% 30.07 in 10.0 mi WNW 6.9 mph - N/A   Clear
11:55 AM 76.1 °F 51.1 °F 41% 30.07 in 10.0 mi West 8.1 mph - N/A   Clear
12:15 PM 76.6 °F 50.9 °F 40% 30.06 in 10.0 mi WSW 6.9 mph - N/A   Clear
12:35 PM 77.5 °F 51.3 °F 40% 30.05 in 10.0 mi WSW 8.1 mph - N/A   Clear
12:55 PM 77.7 °F 50.0 °F 38% 30.04 in 10.0 mi WSW 6.9 mph - N/A   Clear
1:15 PM 78.3 °F 48.7 °F 35% 30.04 in 10.0 mi WSW 3.5 mph - N/A   Clear
1:35 PM 78.8 °F 49.1 °F 35% 30.03 in 10.0 mi SSW 8.1 mph - N/A   Clear
1:55 PM 79.7 °F 48.7 °F 34% 30.03 in 10.0 mi West 4.6 mph - N/A   Clear
2:15 PM 79.9 °F 48.9 °F 34% 30.02 in 7.0 mi WSW 3.5 mph - N/A   Clear
2:35 PM 80.2 °F 47.5 °F 32% 30.01 in 10.0 mi WSW 9.2 mph - N/A   Clear
2:55 PM 80.4 °F 47.7 °F 32% 30.01 in 10.0 mi SSW 5.8 mph - N/A   Clear
3:15 PM 80.6 °F 47.5 °F 31% 30.00 in 10.0 mi WSW 5.8 mph - N/A   Clear
3:35 PM 81.0 °F 48.0 °F 31% 30.00 in 10.0 mi SSW 4.6 mph - N/A   Clear
4:15 PM 81.3 °F 47.7 °F 31% 29.99 in 10.0 mi WSW 4.6 mph - N/A   Clear
4:35 PM 81.3 °F 46.9 °F 30% 29.98 in 10.0 mi Calm Calm - N/A   Clear
4:55 PM 81.3 °F 47.5 °F 30% 29.98 in 10.0 mi SSW 3.5 mph - N/A   Clear
5:15 PM 81.3 °F 47.7 °F 31% 29.98 in 10.0 mi WSW 3.5 mph - N/A   Clear
5:35 PM 80.8 °F 48.6 °F 32% 29.98 in 10.0 mi SW 3.5 mph - N/A   Clear
5:55 PM 80.6 °F 47.8 °F 32% 29.98 in 10.0 mi WSW 5.8 mph - N/A   Clear
6:15 PM 80.2 °F 47.8 °F 32% 29.96 in 10.0 mi SW 4.6 mph - N/A   Clear
6:35 PM 79.9 °F 47.3 °F 32% 29.96 in 10.0 mi SW 3.5 mph - N/A   Clear
6:55 PM 79.2 °F 47.3 °F 33% 29.96 in 10.0 mi SW 3.5 mph - N/A   Clear
7:15 PM 78.3 °F 47.3 °F 34% 29.96 in 10.0 mi Calm Calm - N/A   Clear
7:35 PM 77.0 °F 47.1 °F 35% 29.96 in 10.0 mi SW 3.5 mph - N/A   Clear
7:55 PM 75.9 °F 47.1 °F 36% 29.96 in 10.0 mi Calm Calm - N/A   Clear
8:15 PM 74.5 °F 49.3 °F 41% 29.96 in 10.0 mi SSW 4.6 mph - N/A   Clear
8:35 PM 72.9 °F 50.2 °F 45% 29.96 in 10.0 mi SSW 3.5 mph - N/A   Clear
9:15 PM 70.7 °F 50.7 °F 49% 29.96 in 10.0 mi SSW 3.5 mph - N/A   Clear
9:35 PM 69.8 °F 50.9 °F 51% 29.96 in 10.0 mi SSW 3.5 mph - N/A   Clear
9:55 PM 69.3 °F 50.9 °F 52% 29.97 in 10.0 mi SSW 3.5 mph - N/A   Clear
10:15 PM 68.9 °F 50.9 °F 53% 29.98 in 10.0 mi SSW 4.6 mph - N/A   Clear
10:35 PM 68.4 °F 50.7 °F 53% 29.98 in 10.0 mi SSW 4.6 mph - N/A   Clear
10:55 PM 68.0 °F 50.7 °F 54% 29.98 in 10.0 mi SSW 3.5 mph - N/A   Clear
11:15 PM 67.3 °F 50.7 °F 55% 29.98 in 10.0 mi SW 3.5 mph - N/A   Clear
11:35 PM 66.9 °F 50.5 °F 56% 29.98 in 10.0 mi SSW 3.5 mph - N/A   Clear
11:55 PM 66.6 °F 50.4 °F 56% 29.98 in 10.0 mi SSW 3.5 mph - N/A   Clear